CDT,Max TemperatureF,Mean TemperatureF,Min TemperatureF,Max Dew PointF,MeanDew PointF,Min DewpointF,Max Humidity, Mean Humidity, Min Humidity, Max Sea Level PressureIn, Mean Sea Level PressureIn, Min Sea Level PressureIn, Max VisibilityMiles, Mean VisibilityMiles, Min VisibilityMiles, Max Wind SpeedMPH, Mean Wind SpeedMPH, Max Gust SpeedMPH,PrecipitationIn, CloudCover, Events, WindDirDegrees
2012-9-1,93,83,73,81,75,70,100,87,46,30.19,30.11,30.02,10,4,0,10,1,,0.00,3,Fog-Rain,208
2012-9-2,90,83,78,77,76,73,93,84,63,30.06,29.97,29.94,10,10,9,13,6,16,0.00,2,,217
2012-9-3,93,84,77,81,77,75,96,83,59,30.05,29.98,29.89,10,9,2,12,5,,0.00,3,Rain,238
2012-9-4,82,78,75,80,76,72,97,90,74,29.98,29.91,29.81,10,9,4,13,6,17,0.29,6,Rain-Thunderstorm,210
2012-9-5,87,81,75,77,75,73,100,90,69,29.89,29.84,29.78,10,9,3,8,4,,0.04,7,Rain,259
2012-9-6,91,82,75,79,75,73,100,83,61,29.95,29.89,29.84,10,9,6,14,6,20,0.00,4,Rain,135
2012-9-7,90,80,71,79,74,70,100,87,65,29.97,29.89,29.80,10,6,0,12,2,,0.28,2,Fog-Rain,151
2012-9-8,93,84,75,79,76,72,100,85,54,29.89,29.82,29.72,10,8,1,14,3,22,0.41,5,Rain,359
2012-9-9,84,75,66,71,65,61,85,75,47,29.98,29.91,29.83,10,10,10,10,6,,0.00,3,,347
2012-9-10,88,75,62,68,63,59,93,72,43,30.04,30.01,29.98,10,10,9,8,4,,0.00,3,,360
2012-9-11,88,76,64,65,63,61,96,68,43,30.14,30.08,30.03,10,10,9,12,4,18,0.00,4,,67
2012-9-12,87,78,71,71,66,64,87,69,53,30.17,30.11,30.07,10,10,10,12,7,,0.00,4,Rain,73
2012-9-13,90,79,69,70,67,63,90,70,43,30.16,30.11,30.05,10,10,8,10,6,,0.00,2,,65
2012-9-14,89,78,68,70,67,65,93,70,48,30.12,30.08,30.03,10,10,7,9,5,16,0.00,3,,35
2012-9-15,90,80,71,73,71,67,94,76,55,30.13,30.05,29.99,10,10,10,9,4,,0.00,4,Rain,69
2012-9-16,89,80,70,74,72,69,97,80,57,30.03,29.98,29.93,10,9,4,13,4,,0.00,3,Rain-Thunderstorm,130
2012-9-17,80,76,73,76,73,71,100,95,83,29.94,29.87,29.74,10,6,0,17,6,21,3.53,7,Rain-Thunderstorm,125
2012-9-18,84,76,71,77,72,68,100,85,65,29.93,29.78,29.70,10,9,2,17,8,32,0.21,5,Rain-Thunderstorm,267
2012-9-19,82,73,64,68,63,60,96,77,50,30.04,29.99,29.92,10,9,5,8,5,,0.00,2,,349
2012-9-20,87,74,60,67,61,55,93,71,41,30.06,30.01,29.95,10,10,10,6,3,,0.00,1,,359
2012-9-21,90,76,64,72,66,61,93,76,46,30.04,29.98,29.93,10,9,5,7,3,,0.00,3,,2
2012-9-22,91,78,66,72,68,64,100,88,46,30.07,30.02,29.97,10,5,0,7,1,,0.00,0,Fog-Rain,339
2012-9-23,90,78,66,68,63,57,96,69,33,30.12,30.08,30.04,10,9,5,8,4,,0.00,0,Rain,360
2012-9-24,84,74,61,64,59,54,93,67,41,30.15,30.10,30.04,10,10,6,7,3,,0.00,1,,4
2012-9-25,88,71,55,63,55,50,93,67,30,30.12,30.09,30.05,10,10,10,9,3,,0.00,2,,87
2012-9-26,89,74,62,72,68,60,100,81,59,30.12,30.07,30.04,10,10,9,14,5,,0.00,4,Rain,102
2012-9-27,91,78,64,72,67,64,100,87,44,30.14,30.08,30.01,10,5,1,10,1,,0.00,2,,20
2012-9-28,91,78,66,74,70,66,100,84,46,30.08,30.02,29.94,10,7,1,8,1,,0.00,3,,236
2012-9-29,88,79,71,76,72,70,100,88,59,29.99,29.92,29.84,10,6,0,7,1,,0.00,3,Fog-Rain,303
2012-9-30,81,76,72,77,74,71,100,94,84,29.84,29.74,29.62,10,7,0,29,5,34,0.99,7,Fog-Rain-Thunderstorm,144